Regional Weather Roundup
Issued by NWS

Home | Current Version | Previous Version | Graphics & Text | Print | Product List | Glossary Off
Versions: 1 2 3 4 5 6 7 8 9 10 11 12 13 14 15 16 17 18 19 20 21 22 23 24 25 26 27 28 29 30 31 32 33 34 35 36 37 38 39 40 41 42 43 44 45 46 47 48 49 50

000
ASUS43 KMPX 230601
RWRMN
WEATHER ROUNDUP FOR MINNESOTA
NATIONAL WEATHER SERVICE TWIN CITIES/CHANHASSEN MN
100 AM CDT TUE MAY 23 2017


NOTE: "FAIR" INDICATES FEW OR NO CLOUDS BELOW 12,000 FEET WITH NO
SIGNIFICANT WEATHER AND/OR OBSTRUCTIONS TO VISIBILITY. N/A MEANS
CURRENT SKY AND/OR WEATHER CONDITIONS ARE NOT AVAILABLE.

MNZ060>063-068>070-230700-
   Twin Cities Metro

CITY           SKY/WX    TMP DP  RH WIND       PRES   REMARKS
TWIN CITIES    LGT RAIN  54  45  71 W3        29.83S
6HR MIN TEMP:  54; 6HR MAX TEMP:  64; 6HR PCP:  0.01;

ST PAUL        LGT RAIN  54  45  71 NW5       29.83F
CRYSTAL        CLOUDY    53  40  61 NW7       29.82S
BLAINE         DRIZZLE   54  45  71 NW3       29.82F
LAKEVILLE      LGT RAIN  50  50 100 W5        29.83F
EDEN PRAIRIE   LGT RAIN  55  43  63 CALM      29.82S
6HR MIN TEMP:  55; 6HR MAX TEMP:  64; 6HR PCP: TRACE;

SOUTH ST PAUL  LGT RAIN  54  46  74 SW3       29.83S
LAKE ELMO      FAIR      52  46  82 CALM      29.83F
$$
MNZ001>005-007-008-013>017-022>024-027-028-230700-
   Northwest Minnesota

CITY           SKY/WX    TMP DP  RH WIND       PRES   REMARKS
BEMIDJI        DRIZZLE   45  44  99 NW5       29.86S
HALLOCK        CLOUDY    48  45  87 N13       29.96R
ROSEAU         CLOUDY    46  43  87 N12       29.92S
WARROAD        CLOUDY    46  43  87 N10G20    29.92R
THIEF RVR FALL LGT RAIN  46  45  93 N14       29.92R
CROOKSTON      RAIN      48  46  93 N10       29.93R
FOSSTON        DRIZZLE   45  43  93 N9        29.90R
DETROIT LAKES  DRIZZLE   46  45  93 N9        29.89S
MOORHEAD       CLOUDY    46  45  93 N9        29.91S
PARK RAPIDS    CLOUDY    45  42  89 NW6       29.85S
MAHNOMEN       DRIZZLE   46  44  93 N8        29.89R
$$
MNZ006-009>011-018-025>026-230700-
   North Central Minnesota

CITY           SKY/WX    TMP DP  RH WIND       PRES   REMARKS
BAUDETTE       CLOUDY    47  46  97 N9        29.88R
FLAG ISLAND    CLOUDY    48  45  87 N21       29.92R
INTL FALLS     CLOUDY    48  45  89 N7        29.84S FOG
6HR MIN TEMP:  47; 6HR MAX TEMP:  50; 6HR PCP: TRACE;

WASKISH        CLOUDY    46  45  93 N6        29.87R
BIG FORK       CLOUDY    45  45 100 CALM      29.84F
LONGVILLE      DRIZZLE   45  45 100 CALM      29.85S
GRAND RAPIDS   CLOUDY    44  42  93 CALM      29.86S
CRANE LAKE     PTCLDY    39  37  93 CALM      29.86R
ORR            CLOUDY    45  43  93 CALM      29.82R
COOK           CLOUDY    45  43  93 CALM      29.84S
WALKER         CLOUDY    44  43  97 NW3       29.85S
$$
MNZ012-019>021-037-230700-
   Northeast Minnesota

CITY           SKY/WX    TMP DP  RH WIND       PRES   REMARKS
DULUTH         CLOUDY    48  45  89 N5        29.82S
6HR MIN TEMP:  48; 6HR MAX TEMP:  53;

ELY            CLEAR     37  37 100 CALM      29.83S FOG
HIBBING        MOCLDY    36  36 100 NW5       29.83S FOG
EVELETH        PTCLDY    39  37  93 CALM      29.84F
DULUTH HARBOR  CLOUDY    48  45  87 CALM      29.84R
TWO HARBORS    CLOUDY    52  46  82 CALM      29.81S HAZE
SILVER BAY     CLOUDY    46  45  93 CALM      29.81S
GRAND MARAIS     N/A     44  42  93 CALM      29.82R
G MARAIS ARPRT CLEAR     37  36  93 CALM      29.83S
$$
MNZ029>031-032-039>041-046>048-054>057-064-230700-
   West Central Minnesota

CITY           SKY/WX    TMP DP  RH WIND       PRES   REMARKS
FERGUS FALLS   CLOUDY    46  46 100 N7        29.88S
WHEATON        CLOUDY    48  45  87 NW7       29.92S
MORRIS         CLOUDY    48  46  93 NW9       29.87F
ALEXANDRIA     CLOUDY    45  44  97 NW5       29.88S
ELBOW LAKE     CLOUDY    46  45  97 W8        29.89S
WADENA         CLOUDY    45  43  93 NW5       29.86S
GLENWOOD       DRIZZLE   46  45  93 N6        29.87S
APPLETON       DRIZZLE   48  45  87 NW5       29.88F
BENSON         DRIZZLE   46  45  93 N7        29.89F
ORTONVILLE     CLOUDY    48  45  87 NW9       29.89F
MADISON        RAIN      52  48  87 NW8       29.90S
WILLMAR        CLOUDY    50  45  81 NW9       29.88S
$$
MNZ033>034-036-042>043-049>051-058-059-230700-
   Central Minnesota

CITY           SKY/WX    TMP DP  RH WIND       PRES   REMARKS
ST CLOUD       CLOUDY    45  43  93 NW6       29.84S
6HR MIN TEMP:  45; 6HR MAX TEMP:  58;

SAUK CENTRE    DRIZZLE   46  43  90 NW5       29.86S
PAYNESVILLE    CLOUDY    46  47 100 W3        29.85S
AITKIN         CLOUDY    45  43  93 NW3       29.83S
PINE RIVER     DRIZZLE   45  45 100 CALM      29.89S
BRAINERD       CLOUDY    46  44  93 N7        29.85S
STAPLES        DRIZZLE   45  43  93 CALM      29.86S
LONG PRAIRIE   MOCLDY    43  41  93 W8        29.86F
LITTLE FALLS   CLOUDY    46  43  87 NW3       29.85S
LITCHFIELD     MOCLDY    52  45  76 NW5       29.85F
BUFFALO        CLOUDY    51  42  69 NW5       29.84F
MAPLE LAKE     MOCLDY    48  44  85 NW6       29.85S
HUTCHINSON     CLOUDY    51  45  79 W8        29.86S
$$
MNZ037-044-045-052-053-230700-
   East Central Minnesota

CITY           SKY/WX    TMP DP  RH WIND       PRES   REMARKS
PRINCETON      PTCLDY    43  41  93 CALM      29.83F
MORA           MOCLDY    43  43 100 CALM      29.85S
CAMBRIDGE      CLOUDY    45  41  87 CALM      29.81F
RUSH CITY      CLOUDY    45  43  95 CALM      29.83S
MOOSE LAKE     CLOUDY    45  43  93 CALM      29.82S
HINCKLEY       FAIR      46  45  93 CALM      29.83S
CLOQUET        CLOUDY    46  43  87 N3        29.83S
MCGREGOR       CLOUDY    46  45  93 NW3       29.84S
$$
MNZ071>073-080-081-089-090-097-098-230700-
   Southwest Minnesota

CITY           SKY/WX    TMP DP  RH WIND       PRES   REMARKS
MONTEVIDEO     DRIZZLE   48  43  81 VRB9G17   29.89S
CANBY          DRIZZLE   49  45  88 W9        29.91S
MARSHALL       CLOUDY    50  45  83 NW10      29.89F
REDWOOD FALLS  CLOUDY    50  44  80 W6        29.87S
OLIVIA         CLOUDY    50  43  76 NW10G17   29.86S
PIPESTONE      LGT RAIN  48  41  76 NW12      29.90F
WINDOM         CLOUDY    50  48  93 W8        29.88S
WORTHINGTON    CLOUDY    47  46  97 W7        29.90F
JACKSON        CLOUDY    48  46  93 W8        29.88S
TRACY          CLOUDY    50  46  87 NW5       29.89S
SLAYTON        CLOUDY    47  46  94 W5        29.91S
$$
MNZ065>067-074>077-082>085-091>093-230700-
   South Central Minnesota

CITY           SKY/WX    TMP DP  RH WIND       PRES   REMARKS
MANKATO        CLOUDY    51  49  92 SW3       29.85F
NEW ULM        CLOUDY    52  46  82 NW8       29.85F
ST JAMES       CLOUDY    52  48  87 W8        29.87S
FAIRMONT       CLOUDY    51  49  92 NW9       29.86F
GLENCOE        CLOUDY    53  48  81 NW3       29.83F
FARIBAULT      CLOUDY    52  46  82 NW5       29.83F
OWATONNA       CLOUDY    52  46  82 NW5       29.83F
WASECA         CLOUDY    52  45  76 NW7       29.85F
ALBERT LEA     RAIN      52  48  87 N10       29.83F
$$
MNZ078>079-086>088-094>096-230700-
   Southeast Minnesota

CITY           SKY/WX    TMP DP  RH WIND       PRES   REMARKS
ROCHESTER      LGT RAIN  52  49  89 NW10      29.83S
6HR MIN TEMP:  52; 6HR MAX TEMP:  64; 6HR PCP:  0.14;

RED WING       CLOUDY    54  46  76 CALM      29.81S
STANTON        CLOUDY    53  49  86 W5        29.82S
DODGE CENTER   CLOUDY    52  48  87 NW7       29.82S
WINONA         CLOUDY    54  52  94 CALM      29.80S
AUSTIN         CLOUDY    52  48  87 NW7       29.82F
PRESTON        CLOUDY    51  49  93 NW5       29.81F
$$
ABBREVIATIONS USED IN REMARKS
   TC - TEMPERATURES IN CELSIUS
  WCI - WIND CHILL INDEX
   HX - HEAT INDEX
  VSB - VISIBILITY
$$




USA.gov is the U.S. government's official web portal to all federal, state and local government web resources and services.